Location: Hermaringen
(48.5952°N, 10.2585°E)
Time: 11:02:13
(UTC+00:00)

Courier 1B - Pass Details

Date: 18 February 2026
Orbit: 962 x 1208 km, 28.3° (Epoch: 7 March)

Event Time Altitude Azimuth Distance (km) Brightness Sun altitude
Rises 22:40:40 0° 244° (WSW) 4,047 - -51.2°
Reaches altitude 10° 22:46:01 10° 214° (SSW) 3,120 - -51.5°
Maximum altitude 22:48:17 11° 196° (SSW) 3,018 - -51.6°
Drops below altitude 10° 22:50:35 10° 179° (S) 3,135 - -51.7°
Sets 22:56:00 0° 149° (SSE) 4,098 - -52.0°
